Date String (YYYY-MM-DD hh:mm:ss) UTC,Instrument flags,absolute air pressure of the measurement (hPa),sample flow rate (lpm),inlet stack bypass flow (lpm),air temperature of the measurement (°C),ambient temperature measured by the external sensor (°C),aerosol sample conditioner tube jacket temperature (°C),OPC LED temperature (°C),internal box temperature (°C),relative humidity of the measurement (%),span deviation,mass concentration of particles derived from Lorenz-Mie calculation of OPC scattering (μg/m³),mass concentration of particles derived from Lorenz-Mie calculation of OPC scattering (μg/m³),mass concentration of particles derived from Lorenz-Mie calculation of OPC scattering (μg/m³)
DateTimeUTC,F1_M11,P_M11,Q1_M11,Q2_M11,T1_M11,T2_M11,T3_M11,T4_M11,T5_M11,U1_M11,ZSPAN_M11,X2_M11,X0_M11,X1_M11
2023-11-10 01:00:00,SystemResetWarning,0835.0,4.99,000.00,026.3,025.4,000.0,034.7,027.8,8.2,0000.0,0004.63,0010.84,0003.77
2023-11-10 01:01:00,SystemResetWarning,0835.0,5.01,000.00,026.3,025.4,000.0,034.7,027.7,8.1,0000.0,0004.62,0010.45,0003.76
2023-11-10 01:02:00,SystemResetWarning,0834.8,5.01,000.00,026.3,025.4,000.0,034.7,027.7,8.1,0000.0,0004.62,0010.67,0003.76
2023-11-10 01:03:00,SystemResetWarning,0834.9,5.00,000.00,026.3,025.4,000.0,034.7,027.7,8.0,0000.0,0004.60,0010.40,0003.76
2023-11-10 01:04:00,SystemResetWarning,0834.7,5.00,000.00,026.3,025.4,000.0,034.7,027.7,8.0,0000.0,0004.59,0010.90,0003.75
2023-11-10 01:05:00,SystemResetWarning,0835.0,5.00,000.00,026.3,025.3,000.0,034.7,027.7,8.1,0000.0,0004.57,0011.40,0003.73
2023-11-10 01:06:00,SystemResetWarning,0835.2,4.99,000.00,026.3,025.3,000.0,034.7,027.7,8.1,0000.0,0004.59,0011.73,0003.70
2023-11-10 01:07:00,SystemResetWarning,0835.3,5.00,000.00,026.3,025.3,000.0,034.7,027.7,8.1,0000.0,0004.59,0011.71,0003.65
2023-11-10 01:08:00,SystemResetWarning,0835.0,5.00,000.00,026.3,025.3,000.0,034.6,027.6,8.1,0000.0,0004.57,0011.90,0003.61
2023-11-10 01:09:00,SystemResetWarning,0835.2,5.00,000.00,026.2,025.3,000.0,034.6,027.6,8.2,0000.0,0004.58,0011.94,0003.59
2023-11-10 01:10:00,SystemResetWarning,0835.1,5.01,000.00,026.2,025.3,000.0,034.6,027.6,8.2,0000.0,0004.53,0011.66,0003.56
2023-11-10 01:11:00,SystemResetWarning,0835.0,5.00,000.00,026.2,025.3,000.0,034.6,027.5,8.2,0000.0,0004.50,0011.72,0003.53
2023-11-10 01:12:00,SystemResetWarning,0834.9,5.00,000.00,026.2,025.2,000.0,034.6,027.6,8.2,0000.0,0004.48,0011.73,0003.50
2023-11-10 01:13:00,SystemResetWarning,0834.9,4.99,000.00,026.2,025.2,000.0,034.6,027.6,8.2,0000.0,0004.49,0011.70,0003.48
2023-11-10 01:14:00,SystemResetWarning,0834.7,4.99,000.00,026.2,025.2,000.0,034.6,027.5,8.2,0000.0,0004.46,0012.19,0003.45
2023-11-10 01:15:00,SystemResetWarning,0834.7,4.99,000.00,026.1,025.2,000.0,034.6,027.4,8.2,0000.0,0004.38,0012.19,0003.41
2023-11-10 01:16:00,SystemResetWarning,0834.8,5.00,000.00,026.1,025.2,000.0,034.6,027.4,8.3,0000.0,0004.40,0013.25,0003.40
2023-11-10 01:17:00,SystemResetWarning,0834.8,5.00,000.00,026.1,025.2,000.0,034.6,027.5,8.3,0000.0,0004.43,0013.48,0003.39
2023-11-10 01:18:00,SystemResetWarning,0835.3,5.00,000.00,026.1,025.2,000.0,034.6,027.5,8.3,0000.0,0004.43,0014.32,0003.39
2023-11-10 01:19:00,SystemResetWarning,0835.4,5.00,000.00,026.1,025.2,000.0,034.6,027.5,8.2,0000.0,0004.48,0014.36,0003.39
2023-11-10 01:20:00,SystemResetWarning,0835.3,5.00,000.00,026.1,025.2,000.0,034.6,027.4,8.2,0000.0,0004.48,0015.17,0003.40
2023-11-10 01:21:00,SystemResetWarning,0835.3,5.01,000.00,026.1,025.1,000.0,034.5,027.5,8.2,0000.0,0004.46,0015.21,0003.40
2023-11-10 01:22:00,SystemResetWarning,0835.3,5.00,000.00,026.1,025.1,000.0,034.5,027.5,8.3,0000.0,0004.49,0015.43,0003.39
2023-11-10 01:23:00,SystemResetWarning,0835.3,5.00,000.00,026.1,025.1,000.0,034.5,027.5,8.4,0000.0,0004.51,0015.53,0003.38
2023-11-10 01:24:00,SystemResetWarning,0835.2,5.00,000.00,026.1,025.2,000.0,034.5,027.5,8.3,0000.0,0004.54,0015.63,0003.37
2023-11-10 01:25:00,SystemResetWarning,0835.3,4.99,000.00,026.1,025.2,000.0,034.5,027.5,8.3,0000.0,0004.53,0015.57,0003.36
2023-11-10 01:26:00,SystemResetWarning,0835.4,4.99,000.00,026.1,025.2,000.0,034.5,027.5,8.4,0000.0,0004.58,0015.20,0003.38
2023-11-10 01:27:00,SystemResetWarning,0835.3,5.00,000.00,026.1,025.1,000.0,034.5,027.5,8.4,0000.0,0004.56,0013.92,0003.39
2023-11-10 01:28:00,SystemResetWarning,0835.4,5.00,000.00,026.1,025.1,000.0,034.5,027.5,8.5,0000.0,0004.54,0014.28,0003.39
2023-11-10 01:29:00,SystemResetWarning,0835.4,5.01,000.00,026.1,025.1,000.0,034.5,027.5,8.5,0000.0,0004.57,0014.10,0003.40
2023-11-10 01:30:00,SystemResetWarning,0835.4,5.00,000.00,026.1,025.1,000.0,034.5,027.4,8.5,0000.0,0004.55,0013.88,0003.41
2023-11-10 01:31:00,SystemResetWarning,0835.1,5.01,000.00,026.1,025.1,000.0,034.5,027.5,8.3,0000.0,0004.52,0012.23,0003.41
2023-11-10 01:32:00,SystemResetWarning,0835.1,5.00,000.00,026.1,025.1,000.0,034.5,027.5,8.2,0000.0,0004.53,0012.30,0003.41
2023-11-10 01:33:00,SystemResetWarning,0834.9,5.00,000.00,026.1,025.1,000.0,034.5,027.5,8.2,0000.0,0004.52,0012.21,0003.42
2023-11-10 01:34:00,SystemResetWarning,0835.0,5.00,000.00,026.0,025.1,000.0,034.5,027.5,8.3,0000.0,0004.50,0012.00,0003.43
2023-11-10 01:35:00,SystemResetWarning,0834.9,5.00,000.00,026.0,025.1,000.0,034.5,027.5,8.3,0000.0,0004.42,0011.72,0003.41
2023-11-10 01:36:00,SystemResetWarning,0834.9,4.99,000.00,026.0,025.1,000.0,034.4,027.5,8.4,0000.0,0004.39,0011.36,0003.41
2023-11-10 01:37:00,SystemResetWarning,0834.9,4.99,000.00,026.0,025.1,000.0,034.4,027.5,8.6,0000.0,0004.40,0011.51,0003.39
2023-11-10 01:38:00,SystemResetWarning,0835.1,5.00,000.00,026.0,025.1,000.0,034.4,027.4,8.5,0000.0,0004.41,0011.84,0003.37
2023-11-10 01:39:00,SystemResetWarning,0835.0,5.01,000.00,026.0,025.1,000.0,034.4,027.4,8.7,0000.0,0004.43,0011.48,0003.37
2023-11-10 01:40:00,SystemResetWarning,0835.4,5.00,000.00,026.0,025.1,000.0,034.4,027.4,8.4,0000.0,0004.39,0011.08,0003.36
2023-11-10 01:41:00,SystemResetWarning,0835.3,5.01,000.00,026.0,025.0,000.0,034.4,027.4,8.3,0000.0,0004.40,0011.61,0003.37
2023-11-10 01:42:00,SystemResetWarning,0835.3,5.00,000.00,026.0,025.0,000.0,034.4,027.5,8.3,0000.0,0004.44,0011.69,0003.37
2023-11-10 01:43:00,SystemResetWarning,0835.4,4.99,000.00,026.0,025.0,000.0,034.4,027.4,8.4,0000.0,0004.45,0011.46,0003.35
2023-11-10 01:44:00,SystemResetWarning,0835.4,5.00,000.00,026.0,025.0,000.0,034.4,027.4,8.5,0000.0,0004.40,0012.74,0003.34
2023-11-10 01:45:00,SystemResetWarning,0835.2,5.01,000.00,026.0,025.0,000.0,034.4,027.4,8.5,0000.0,0004.39,0013.69,0003.32
2023-11-10 01:46:00,SystemResetWarning,0835.4,5.01,000.00,026.0,025.0,000.0,034.4,027.3,8.4,0000.0,0004.43,0014.47,0003.32
2023-11-10 01:47:00,SystemResetWarning,0835.3,5.00,000.00,026.0,025.0,000.0,034.4,027.4,8.4,0000.0,0004.43,0014.40,0003.33
2023-11-10 01:48:00,SystemResetWarning,0835.3,4.99,000.00,026.0,025.0,000.0,034.4,027.4,8.4,0000.0,0004.45,0013.92,0003.34
2023-11-10 01:49:00,SystemResetWarning,0835.3,4.99,000.00,026.0,025.0,000.0,034.4,027.4,8.4,0000.0,0004.47,0013.78,0003.36
2023-11-10 01:50:00,SystemResetWarning,0835.3,4.99,000.00,026.0,025.0,000.0,034.4,027.4,8.6,0000.0,0004.42,0013.63,0003.36
2023-11-10 01:51:00,SystemResetWarning,0835.2,5.00,000.00,026.0,025.0,000.0,034.4,027.4,9.0,0000.0,0004.44,0014.02,0003.36
2023-11-10 01:52:00,SystemResetWarning,0835.4,5.00,000.00,026.0,025.0,000.0,034.4,027.4,9.0,0000.0,0004.44,0014.10,0003.35
2023-11-10 01:53:00,SystemResetWarning,0835.2,5.01,000.00,026.0,024.9,000.0,034.4,027.4,9.0,0000.0,0004.42,0013.92,0003.35
2023-11-10 01:54:00,SystemResetWarning,0834.9,5.00,000.00,026.0,024.9,000.0,034.3,027.4,9.0,0000.0,0004.35,0013.85,0003.36
2023-11-10 01:55:00,SystemResetWarning,0834.8,5.00,000.00,026.0,024.9,000.0,034.3,027.4,9.2,0000.0,0004.39,0013.96,0003.39
2023-11-10 01:56:00,SystemResetWarning,0834.8,4.99,000.00,026.0,024.9,000.0,034.3,027.4,9.5,0000.0,0004.44,0014.06,0003.42
2023-11-10 01:57:00,SystemResetWarning,0835.2,5.00,000.00,025.9,024.8,000.0,034.3,027.4,9.3,0000.0,0004.41,0012.87,0003.45
2023-11-10 01:58:00,SystemResetWarning,0835.2,5.01,000.00,025.9,024.8,000.0,034.3,027.3,9.1,0000.0,0004.43,0013.12,0003.48
2023-11-10 01:59:00,SystemResetWarning,0835.3,5.00,000.00,025.9,024.8,000.0,034.3,027.4,9.2,0000.0,0004.43,0013.64,0003.51
